Time,TemperatureF,DewpointF,PressureIn,WindDirection,WindDirectionDegrees,WindSpeedMPH,WindSpeedGustMPH,Humidity,HourlyPrecipIn,Conditions,Clouds,dailyrainin,SoftwareType,DateUTC
2013-06-18 00:01:00,67.7,63.6,30.07,SE,135,0.0,0.0,87,0.00,,,0.00,WUHU216HW,2013-06-18 05:01:00,
2013-06-18 00:06:00,67.7,63.6,30.07,SE,135,0.0,0.4,87,0.00,,,0.00,WUHU216HW,2013-06-18 05:06:00,
2013-06-18 00:11:00,67.7,63.6,30.07,SE,135,0.0,0.4,87,0.00,,,0.00,WUHU216HW,2013-06-18 05:11:00,
2013-06-18 00:16:00,67.5,63.5,30.07,SE,135,0.0,0.0,87,0.00,,,0.00,WUHU216HW,2013-06-18 05:16:00,
2013-06-18 00:21:00,67.5,63.5,30.07,SE,135,0.0,0.0,87,0.00,,,0.00,WUHU216HW,2013-06-18 05:21:00,
2013-06-18 00:26:00,67.3,63.3,30.08,SE,135,0.0,0.0,87,0.00,,,0.00,WUHU216HW,2013-06-18 05:26:00,
2013-06-18 00:31:00,67.3,63.3,30.08,SE,135,0.0,0.0,87,0.00,,,0.00,WUHU216HW,2013-06-18 05:31:00,
2013-06-18 00:36:00,67.3,63.3,30.08,SE,135,0.0,0.0,87,0.00,,,0.00,WUHU216HW,2013-06-18 05:36:00,
2013-06-18 00:41:00,67.3,63.3,30.07,SE,135,0.0,0.0,87,0.00,,,0.00,WUHU216HW,2013-06-18 05:41:00,
2013-06-18 00:46:00,67.3,63.3,30.08,SE,135,0.0,0.0,87,0.00,,,0.00,WUHU216HW,2013-06-18 05:46:00,
2013-06-18 00:51:00,67.1,63.5,30.08,SE,135,0.4,0.4,88,0.00,,,0.00,WUHU216HW,2013-06-18 05:51:00,
2013-06-18 00:56:00,67.1,63.5,30.08,SE,135,0.0,0.4,88,0.00,,,0.00,WUHU216HW,2013-06-18 05:56:00,
2013-06-18 01:01:00,67.1,63.5,30.08,SE,135,0.0,0.4,88,0.00,,,0.00,WUHU216HW,2013-06-18 06:01:00,
2013-06-18 01:06:00,67.0,63.3,30.08,SE,135,0.0,0.0,88,0.00,,,0.00,WUHU216HW,2013-06-18 06:06:00,
2013-06-18 01:11:00,67.0,63.3,30.08,SE,135,0.0,0.0,88,0.00,,,0.00,WUHU216HW,2013-06-18 06:11:00,
2013-06-18 01:16:00,67.0,63.3,30.08,SE,135,0.0,0.2,88,0.00,,,0.00,WUHU216HW,2013-06-18 06:16:00,
2013-06-18 01:21:00,67.0,63.3,30.08,SE,135,0.0,0.2,88,0.00,,,0.00,WUHU216HW,2013-06-18 06:21:00,
2013-06-18 01:26:00,66.8,63.1,30.08,SE,135,0.0,0.0,88,0.00,,,0.00,WUHU216HW,2013-06-18 06:26:00,
2013-06-18 01:31:00,66.8,63.1,30.08,SE,135,0.0,0.0,88,0.00,,,0.00,WUHU216HW,2013-06-18 06:31:00,
2013-06-18 01:36:00,66.8,63.1,30.08,SE,135,0.0,0.0,88,0.00,,,0.00,WUHU216HW,2013-06-18 06:36:00,
2013-06-18 01:41:00,66.8,63.1,30.08,WSW,248,0.4,0.4,88,0.00,,,0.00,WUHU216HW,2013-06-18 06:41:00,
2013-06-18 01:46:00,66.8,63.1,30.09,SW,225,1.6,1.8,88,0.00,,,0.00,WUHU216HW,2013-06-18 06:46:00,
2013-06-18 01:51:00,66.8,63.1,30.10,SW,225,1.8,1.8,88,0.00,,,0.00,WUHU216HW,2013-06-18 06:51:00,
2013-06-18 01:56:00,66.8,63.1,30.10,WSW,248,0.4,1.8,88,0.00,,,0.00,WUHU216HW,2013-06-18 06:56:00,
2013-06-18 02:01:00,66.8,63.1,30.10,SSW,203,0.0,1.8,88,0.00,,,0.00,WUHU216HW,2013-06-18 07:01:00,
2013-06-18 02:06:00,66.8,63.1,30.10,SSW,203,0.4,1.3,88,0.00,,,0.00,WUHU216HW,2013-06-18 07:06:00,
2013-06-18 02:11:00,66.8,63.1,30.10,SW,225,0.7,1.3,88,0.00,,,0.00,WUHU216HW,2013-06-18 07:11:00,
2013-06-18 02:16:00,66.6,62.9,30.10,SSE,158,0.2,1.1,88,0.00,,,0.00,WUHU216HW,2013-06-18 07:16:00,
2013-06-18 02:21:00,66.6,62.9,30.10,WSW,248,1.8,1.8,88,0.00,,,0.00,WUHU216HW,2013-06-18 07:21:00,
2013-06-18 02:26:00,66.6,62.9,30.10,WSW,248,2.2,2.2,88,0.00,,,0.00,WUHU216HW,2013-06-18 07:26:00,
2013-06-18 02:31:00,66.8,63.1,30.10,SSW,203,1.1,2.5,88,0.00,,,0.00,WUHU216HW,2013-06-18 07:31:00,
2013-06-18 02:36:00,66.6,62.9,30.10,WSW,248,1.1,2.5,88,0.00,,,0.00,WUHU216HW,2013-06-18 07:36:00,
2013-06-18 02:41:00,66.6,63.2,30.09,South,180,0.4,1.8,89,0.00,,,0.00,WUHU216HW,2013-06-18 07:41:00,
2013-06-18 02:46:00,66.6,63.2,30.09,South,180,1.1,1.8,89,0.00,,,0.00,WUHU216HW,2013-06-18 07:46:00,
2013-06-18 02:51:00,66.8,63.4,30.09,SSE,158,0.7,1.8,89,0.00,,,0.00,WUHU216HW,2013-06-18 07:51:00,
2013-06-18 02:56:00,66.6,63.2,30.09,WSW,248,0.9,1.8,89,0.00,,,0.00,WUHU216HW,2013-06-18 07:56:00,
2013-06-18 03:01:00,66.6,63.2,30.09,WSW,248,0.4,2.0,89,0.00,,,0.00,WUHU216HW,2013-06-18 08:01:00,
2013-06-18 03:06:00,66.6,63.2,30.09,WSW,248,0.9,2.0,89,0.00,,,0.00,WUHU216HW,2013-06-18 08:06:00,
2013-06-18 03:11:00,66.6,63.2,30.08,SSE,158,0.0,1.8,89,0.00,,,0.00,WUHU216HW,2013-06-18 08:11:00,
2013-06-18 03:16:00,66.6,63.2,30.08,WNW,293,0.9,1.6,89,0.00,,,0.00,WUHU216HW,2013-06-18 08:16:00,
2013-06-18 03:21:00,66.6,63.2,30.08,WNW,293,0.0,1.6,89,0.00,,,0.00,WUHU216HW,2013-06-18 08:21:00,
2013-06-18 03:26:00,66.6,63.2,30.09,West,270,0.0,0.9,89,0.00,,,0.00,WUHU216HW,2013-06-18 08:26:00,
2013-06-18 03:31:00,66.6,63.2,30.08,West,270,1.8,1.8,89,0.00,,,0.00,WUHU216HW,2013-06-18 08:31:00,
2013-06-18 03:36:00,66.6,62.9,30.08,NW,315,0.9,1.8,88,0.00,,,0.00,WUHU216HW,2013-06-18 08:36:00,
2013-06-18 03:41:00,66.6,62.9,30.08,West,270,0.4,1.8,88,0.00,,,0.00,WUHU216HW,2013-06-18 08:41:00,
2013-06-18 03:46:00,66.4,62.7,30.08,West,270,0.0,1.8,88,0.00,,,0.00,WUHU216HW,2013-06-18 08:46:00,
2013-06-18 03:51:00,66.4,62.7,30.08,West,270,0.0,1.1,88,0.00,,,0.00,WUHU216HW,2013-06-18 08:51:00,
2013-06-18 03:56:00,66.4,62.7,30.08,West,270,0.4,0.4,88,0.00,,,0.00,WUHU216HW,2013-06-18 08:56:00,
2013-06-18 04:01:00,66.2,62.6,30.09,West,270,1.1,1.1,88,0.00,,,0.00,WUHU216HW,2013-06-18 09:01:00,
2013-06-18 04:06:00,66.2,62.6,30.08,West,270,0.0,1.1,88,0.00,,,0.00,WUHU216HW,2013-06-18 09:06:00,
2013-06-18 04:11:00,66.2,62.6,30.08,West,270,0.0,1.1,88,0.00,,,0.00,WUHU216HW,2013-06-18 09:11:00,
2013-06-18 04:16:00,66.2,62.6,30.08,NW,315,1.1,1.1,88,0.00,,,0.00,WUHU216HW,2013-06-18 09:16:00,
2013-06-18 04:21:00,66.2,62.6,30.08,NNW,338,0.7,1.3,88,0.00,,,0.00,WUHU216HW,2013-06-18 09:21:00,
2013-06-18 04:26:00,66.1,62.4,30.08,NW,315,0.0,1.3,88,0.00,,,0.00,WUHU216HW,2013-06-18 09:26:00,
2013-06-18 04:31:00,66.1,62.4,30.08,West,270,0.9,1.1,88,0.00,,,0.00,WUHU216HW,2013-06-18 09:31:00,
2013-06-18 04:36:00,65.9,62.2,30.08,West,270,0.0,0.9,88,0.00,,,0.00,WUHU216HW,2013-06-18 09:36:00,
2013-06-18 04:41:00,65.9,62.2,30.08,West,270,0.0,0.4,88,0.00,,,0.00,WUHU216HW,2013-06-18 09:41:00,
2013-06-18 04:46:00,65.9,62.2,30.08,West,270,0.0,0.0,88,0.00,,,0.00,WUHU216HW,2013-06-18 09:46:00,
2013-06-18 04:51:00,65.9,62.2,30.08,West,270,0.0,0.0,88,0.00,,,0.00,WUHU216HW,2013-06-18 09:51:00,
2013-06-18 04:56:00,65.7,62.0,30.08,West,270,0.0,0.0,88,0.00,,,0.00,WUHU216HW,2013-06-18 09:56:00,
2013-06-18 05:01:00,65.7,62.0,30.08,West,270,0.0,0.0,88,0.00,,,0.00,WUHU216HW,2013-06-18 10:01:00,
2013-06-18 05:06:00,65.7,62.0,30.08,West,270,0.0,0.0,88,0.00,,,0.00,WUHU216HW,2013-06-18 10:06:00,
2013-06-18 05:11:00,65.7,62.0,30.08,West,270,0.0,0.0,88,0.00,,,0.00,WUHU216HW,2013-06-18 10:11:00,
2013-06-18 05:16:00,65.5,62.2,30.08,West,270,0.0,0.0,89,0.00,,,0.00,WUHU216HW,2013-06-18 10:16:00,
2013-06-18 05:21:00,65.5,62.2,30.08,West,270,0.0,0.2,89,0.00,,,0.00,WUHU216HW,2013-06-18 10:21:00,
2013-06-18 05:26:00,65.5,61.8,30.08,West,270,0.0,0.2,88,0.00,,,0.00,WUHU216HW,2013-06-18 10:26:00,
2013-06-18 05:31:00,65.3,61.8,30.08,West,270,0.0,0.0,88,0.00,,,0.00,WUHU216HW,2013-06-18 10:31:00,
2013-06-18 05:36:00,65.2,61.8,30.08,West,270,1.1,1.1,89,0.00,,,0.00,WUHU216HW,2013-06-18 10:36:00,
2013-06-18 05:41:00,65.2,61.6,30.08,WSW,248,1.8,1.8,88,0.00,,,0.00,WUHU216HW,2013-06-18 10:41:00,
2013-06-18 05:46:00,65.2,61.6,30.08,WSW,248,0.9,2.5,88,0.00,,,0.00,WUHU216HW,2013-06-18 10:46:00,
2013-06-18 05:51:00,65.2,61.6,30.08,West,270,0.9,2.5,88,0.00,,,0.00,WUHU216HW,2013-06-18 10:51:00,
2013-06-18 05:56:00,65.3,61.8,30.09,WSW,248,0.4,2.2,88,0.00,,,0.00,WUHU216HW,2013-06-18 10:56:00,
2013-06-18 06:01:00,65.3,61.8,30.09,West,270,1.6,1.8,88,0.00,,,0.00,WUHU216HW,2013-06-18 11:01:00,
2013-06-18 06:06:00,65.3,61.8,30.09,WSW,248,0.7,1.8,88,0.00,,,0.00,WUHU216HW,2013-06-18 11:06:00,
2013-06-18 06:11:00,65.3,61.8,30.09,WSW,248,0.0,1.6,88,0.00,,,0.00,WUHU216HW,2013-06-18 11:11:00,
2013-06-18 06:16:00,65.3,61.8,30.09,WSW,248,0.0,0.7,88,0.00,,,0.00,WUHU216HW,2013-06-18 11:16:00,
2013-06-18 06:21:00,65.3,61.8,30.10,NW,315,0.0,0.0,88,0.00,,,0.00,WUHU216HW,2013-06-18 11:21:00,
2013-06-18 06:26:00,65.3,61.8,30.10,NNW,338,0.7,1.1,88,0.00,,,0.00,WUHU216HW,2013-06-18 11:26:00,
2013-06-18 06:31:00,65.3,61.8,30.10,NNW,338,0.4,1.1,88,0.00,,,0.00,WUHU216HW,2013-06-18 11:31:00,
2013-06-18 06:36:00,65.3,61.8,30.10,NNW,338,0.0,1.1,88,0.00,,,0.00,WUHU216HW,2013-06-18 11:36:00,
2013-06-18 06:41:00,65.5,61.8,30.10,NNW,338,0.0,0.4,88,0.00,,,0.00,WUHU216HW,2013-06-18 11:41:00,
2013-06-18 06:46:00,65.5,61.8,30.10,WNW,293,0.0,0.4,88,0.00,,,0.00,WUHU216HW,2013-06-18 11:46:00,
2013-06-18 06:51:00,65.5,62.2,30.10,WSW,248,0.9,0.9,89,0.00,,,0.00,WUHU216HW,2013-06-18 11:51:00,
2013-06-18 06:56:00,65.7,62.4,30.10,WSW,248,0.4,1.1,89,0.00,,,0.00,WUHU216HW,2013-06-18 11:56:00,
2013-06-18 07:01:00,65.9,62.8,30.10,WSW,248,0.2,1.1,90,0.00,,,0.00,WUHU216HW,2013-06-18 12:01:00,
2013-06-18 07:06:00,65.9,62.8,30.10,WSW,248,0.0,1.1,90,0.00,,,0.00,WUHU216HW,2013-06-18 12:06:00,
2013-06-18 07:11:00,65.9,62.8,30.09,WSW,248,0.0,0.7,90,0.00,,,0.00,WUHU216HW,2013-06-18 12:11:00,
2013-06-18 07:16:00,66.1,63.0,30.10,WSW,248,0.0,0.9,90,0.00,,,0.00,WUHU216HW,2013-06-18 12:16:00,
2013-06-18 07:21:00,66.2,63.2,30.09,WSW,248,1.1,1.1,90,0.00,,,0.00,WUHU216HW,2013-06-18 12:21:00,
2013-06-18 07:26:00,66.2,63.2,30.09,WSW,248,0.0,2.5,90,0.00,,,0.00,WUHU216HW,2013-06-18 12:26:00,
2013-06-18 07:31:00,66.4,63.4,30.10,WSW,248,0.9,2.5,90,0.00,,,0.00,WUHU216HW,2013-06-18 12:31:00,
2013-06-18 07:36:00,66.6,63.5,30.10,WSW,248,0.4,2.5,90,0.00,,,0.00,WUHU216HW,2013-06-18 12:36:00,
2013-06-18 07:41:00,66.8,64.0,30.10,WSW,248,0.2,0.9,91,0.00,,,0.00,WUHU216HW,2013-06-18 12:41:00,
2013-06-18 07:46:00,67.0,64.2,30.10,SW,225,2.2,2.5,91,0.00,,,0.00,WUHU216HW,2013-06-18 12:46:00,
2013-06-18 07:50:00,67.3,64.5,30.10,WSW,248,1.1,3.6,91,0.00,,,0.00,WUHU216HW,2013-06-18 12:50:00,
2013-06-18 07:55:00,67.7,64.9,30.10,West,270,0.0,3.6,91,0.00,,,0.00,WUHU216HW,2013-06-18 12:55:00,
2013-06-18 08:00:00,68.0,65.3,30.10,WSW,248,1.1,2.5,91,0.00,,,0.00,WUHU216HW,2013-06-18 13:00:00,
2013-06-18 08:05:00,68.2,65.4,30.10,WSW,248,0.0,2.2,91,0.00,,,0.00,WUHU216HW,2013-06-18 13:05:00,
2013-06-18 08:10:00,68.4,65.6,30.10,NW,315,0.4,1.6,91,0.00,,,0.00,WUHU216HW,2013-06-18 13:10:00,
2013-06-18 08:15:00,68.8,66.0,30.10,WSW,248,1.1,1.1,91,0.00,,,0.00,WUHU216HW,2013-06-18 13:15:00,
2013-06-18 08:20:00,68.9,66.2,30.10,SSW,203,0.0,2.2,91,0.00,,,0.00,WUHU216HW,2013-06-18 13:20:00,
2013-06-18 08:25:00,69.3,66.2,30.10,WSW,248,1.1,2.2,90,0.00,,,0.00,WUHU216HW,2013-06-18 13:25:00,
2013-06-18 08:30:00,69.7,66.6,30.10,WSW,248,1.1,1.8,90,0.00,,,0.00,WUHU216HW,2013-06-18 13:30:00,
2013-06-18 08:35:00,69.8,66.8,30.11,WNW,293,0.4,2.2,90,0.00,,,0.00,WUHU216HW,2013-06-18 13:35:00,
2013-06-18 08:40:00,70.4,67.3,30.11,SW,225,0.9,2.2,90,0.00,,,0.00,WUHU216HW,2013-06-18 13:40:00,
2013-06-18 08:45:00,70.6,67.1,30.11,WNW,293,0.2,1.6,89,0.00,,,0.00,WUHU216HW,2013-06-18 13:45:00,
2013-06-18 08:50:00,70.9,67.1,30.11,West,270,1.1,2.5,88,0.00,,,0.00,WUHU216HW,2013-06-18 13:50:00,
2013-06-18 08:55:00,71.3,67.5,30.11,NNE,23,1.8,2.5,88,0.00,,,0.00,WUHU216HW,2013-06-18 13:55:00,
2013-06-18 09:00:00,71.6,67.9,30.11,NW,315,0.4,1.8,88,0.00,,,0.00,WUHU216HW,2013-06-18 14:00:00,
2013-06-18 09:05:00,72.0,68.0,30.11,NNW,338,1.3,2.0,87,0.00,,,0.00,WUHU216HW,2013-06-18 14:05:00,
2013-06-18 09:10:00,72.4,68.0,30.11,SW,225,2.5,2.5,86,0.00,,,0.00,WUHU216HW,2013-06-18 14:10:00,
2013-06-18 09:15:00,72.7,68.3,30.11,East,90,0.4,2.5,86,0.00,,,0.00,WUHU216HW,2013-06-18 14:15:00,
2013-06-18 09:20:00,73.1,68.7,30.11,North,0,1.1,2.5,86,0.00,,,0.00,WUHU216HW,2013-06-18 14:20:00,
2013-06-18 09:25:00,73.4,68.7,30.12,NE,45,2.2,2.2,85,0.00,,,0.00,WUHU216HW,2013-06-18 14:25:00,
2013-06-18 09:30:00,73.8,69.0,30.12,North,0,2.5,2.7,85,0.00,,,0.00,WUHU216HW,2013-06-18 14:30:00,
2013-06-18 09:35:00,74.2,69.4,30.11,North,0,1.1,2.9,85,0.00,,,0.00,WUHU216HW,2013-06-18 14:35:00,
2013-06-18 09:40:00,74.3,69.6,30.11,North,0,1.1,2.9,85,0.00,,,0.00,WUHU216HW,2013-06-18 14:40:00,
2013-06-18 09:45:00,74.7,69.6,30.11,West,270,1.8,3.1,84,0.00,,,0.00,WUHU216HW,2013-06-18 14:45:00,
2013-06-18 09:50:00,75.1,69.9,30.11,SSW,203,0.9,4.0,84,0.00,,,0.00,WUHU216HW,2013-06-18 14:50:00,
2013-06-18 09:55:00,75.2,69.8,30.11,NNE,23,2.9,4.3,83,0.00,,,0.00,WUHU216HW,2013-06-18 14:55:00,
2013-06-18 10:00:00,75.6,69.8,30.11,North,0,1.3,4.3,82,0.00,,,0.00,WUHU216HW,2013-06-18 15:00:00,
2013-06-18 10:05:00,75.8,69.6,30.11,North,0,0.7,4.3,81,0.00,,,0.00,WUHU216HW,2013-06-18 15:05:00,
2013-06-18 10:10:00,76.0,69.8,30.11,East,90,0.7,4.0,81,0.00,,,0.00,WUHU216HW,2013-06-18 15:10:00,
2013-06-18 10:15:00,76.3,70.1,30.11,North,0,5.8,6.0,81,0.00,,,0.00,WUHU216HW,2013-06-18 15:15:00,
2013-06-18 10:20:00,76.7,70.0,30.12,NNW,338,0.4,6.0,80,0.00,,,0.00,WUHU216HW,2013-06-18 15:20:00,
2013-06-18 10:25:00,76.9,70.2,30.12,NNW,338,4.0,5.8,80,0.00,,,0.00,WUHU216HW,2013-06-18 15:25:00,
2013-06-18 10:30:00,77.0,70.0,30.12,North,0,3.4,4.7,79,0.00,,,0.00,WUHU216HW,2013-06-18 15:30:00,
2013-06-18 10:35:00,77.4,70.0,30.11,NNW,338,3.6,5.4,78,0.00,,,0.00,WUHU216HW,2013-06-18 15:35:00,
2013-06-18 10:40:00,77.6,70.1,30.12,NW,315,1.8,5.4,78,0.00,,,0.00,WUHU216HW,2013-06-18 15:40:00,
2013-06-18 10:45:00,77.8,70.3,30.12,NNW,338,0.9,3.8,78,0.00,,,0.00,WUHU216HW,2013-06-18 15:45:00,
2013-06-18 10:50:00,77.9,70.1,30.12,North,0,3.1,6.3,77,0.00,,,0.00,WUHU216HW,2013-06-18 15:50:00,
2013-06-18 10:55:00,78.3,70.1,30.12,NNW,338,2.7,6.3,76,0.00,,,0.00,WUHU216HW,2013-06-18 15:55:00,
2013-06-18 11:00:00,78.7,70.4,30.12,NNE,23,2.7,6.0,76,0.00,,,0.00,WUHU216HW,2013-06-18 16:00:00,
2013-06-18 11:05:00,78.7,70.0,30.12,WNW,293,3.1,6.0,75,0.00,,,0.00,WUHU216HW,2013-06-18 16:05:00,
2013-06-18 11:10:00,78.8,69.4,30.12,North,0,2.9,5.1,73,0.00,,,0.00,WUHU216HW,2013-06-18 16:10:00,
2013-06-18 11:15:00,79.0,69.2,30.12,ENE,68,1.6,5.1,72,0.00,,,0.00,WUHU216HW,2013-06-18 16:15:00,
2013-06-18 11:20:00,79.2,68.9,30.12,NNW,338,2.2,5.4,71,0.00,,,0.00,WUHU216HW,2013-06-18 16:20:00,
2013-06-18 11:25:00,79.4,69.1,30.12,NNE,23,1.1,5.4,71,0.00,,,0.00,WUHU216HW,2013-06-18 16:25:00,
2013-06-18 11:30:00,79.6,68.9,30.12,SE,135,2.2,5.4,70,0.00,,,0.00,WUHU216HW,2013-06-18 16:30:00,
2013-06-18 11:35:00,79.7,68.2,30.12,ENE,68,2.0,4.3,68,0.00,,,0.00,WUHU216HW,2013-06-18 16:35:00,
2013-06-18 11:40:00,79.9,68.0,30.13,North,0,4.7,4.7,67,0.00,,,0.00,WUHU216HW,2013-06-18 16:40:00,
2013-06-18 11:45:00,80.3,67.9,30.13,North,0,2.5,5.1,66,0.00,,,0.00,WUHU216HW,2013-06-18 16:45:00,
2013-06-18 11:50:00,80.3,67.4,30.12,NNE,23,3.4,5.1,65,0.00,,,0.00,WUHU216HW,2013-06-18 16:50:00,
2013-06-18 11:55:00,80.6,67.8,30.12,NE,45,1.1,4.0,65,0.00,,,0.00,WUHU216HW,2013-06-18 16:55:00,
2013-06-18 12:00:00,80.6,67.3,30.12,North,0,3.6,6.3,64,0.00,,,0.00,WUHU216HW,2013-06-18 17:00:00,
2013-06-18 12:05:00,81.0,67.2,30.13,SSE,158,3.4,6.3,63,0.00,,,0.00,WUHU216HW,2013-06-18 17:05:00,
2013-06-18 12:10:00,81.2,66.4,30.13,ENE,68,2.9,4.0,61,0.00,,,0.00,WUHU216HW,2013-06-18 17:10:00,
2013-06-18 12:15:00,81.4,66.6,30.13,East,90,3.4,4.0,61,0.00,,,0.00,WUHU216HW,2013-06-18 17:15:00,
2013-06-18 12:20:00,81.4,66.2,30.13,North,0,2.2,4.3,60,0.00,,,0.00,WUHU216HW,2013-06-18 17:20:00,
2013-06-18 12:25:00,81.7,66.0,30.13,ESE,113,2.7,6.0,59,0.00,,,0.00,WUHU216HW,2013-06-18 17:25:00,
2013-06-18 12:30:00,81.7,65.4,30.13,NNE,23,4.0,6.0,58,0.00,,,0.00,WUHU216HW,2013-06-18 17:30:00,
2013-06-18 12:35:00,81.7,64.9,30.13,East,90,1.8,5.4,57,0.00,,,0.00,WUHU216HW,2013-06-18 17:35:00,
2013-06-18 12:40:00,81.9,65.6,30.13,SE,135,2.9,4.7,58,0.00,,,0.00,WUHU216HW,2013-06-18 17:40:00,
2013-06-18 12:45:00,82.1,65.3,30.13,ESE,113,0.7,4.5,57,0.00,,,0.00,WUHU216HW,2013-06-18 17:45:00,
2013-06-18 12:50:00,82.3,66.0,30.13,North,0,1.3,4.5,58,0.00,,,0.00,WUHU216HW,2013-06-18 17:50:00,
2013-06-18 12:55:00,82.6,66.2,30.13,NNE,23,2.0,4.5,58,0.00,,,0.00,WUHU216HW,2013-06-18 17:55:00,
2013-06-18 13:00:00,82.8,66.4,30.13,East,90,2.5,4.5,58,0.00,,,0.00,WUHU216HW,2013-06-18 18:00:00,
2013-06-18 13:05:00,83.0,66.2,30.13,ENE,68,1.8,3.8,57,0.00,,,0.00,WUHU216HW,2013-06-18 18:05:00,
2013-06-18 13:10:00,83.2,66.3,30.13,SE,135,3.4,5.4,57,0.00,,,0.00,WUHU216HW,2013-06-18 18:10:00,
2013-06-18 13:15:00,83.2,66.8,30.13,ESE,113,2.0,5.4,58,0.00,,,0.00,WUHU216HW,2013-06-18 18:15:00,
2013-06-18 13:20:00,83.3,67.5,30.12,ENE,68,2.2,6.7,59,0.00,,,0.00,WUHU216HW,2013-06-18 18:20:00,
2013-06-18 13:25:00,83.5,67.7,30.12,SE,135,2.2,6.7,59,0.00,,,0.00,WUHU216HW,2013-06-18 18:25:00,
2013-06-18 13:30:00,83.5,67.7,30.13,ESE,113,3.4,4.9,59,0.00,,,0.00,WUHU216HW,2013-06-18 18:30:00,
2013-06-18 13:35:00,83.7,67.3,30.13,ENE,68,1.8,6.0,58,0.00,,,0.00,WUHU216HW,2013-06-18 18:35:00,
2013-06-18 13:40:00,83.7,67.3,30.12,ENE,68,4.7,6.0,58,0.00,,,0.00,WUHU216HW,2013-06-18 18:40:00,
2013-06-18 13:45:00,83.7,67.9,30.12,SE,135,0.7,4.7,59,0.00,,,0.00,WUHU216HW,2013-06-18 18:45:00,
2013-06-18 13:50:00,83.9,67.5,30.12,SE,135,1.1,4.7,58,0.00,,,0.00,WUHU216HW,2013-06-18 18:50:00,
2013-06-18 13:55:00,83.9,67.5,30.12,West,270,1.3,4.3,58,0.00,,,0.00,WUHU216HW,2013-06-18 18:55:00,
2013-06-18 14:00:00,83.9,67.5,30.12,SE,135,2.5,4.9,58,0.00,,,0.00,WUHU216HW,2013-06-18 19:00:00,
2013-06-18 14:05:00,84.2,67.9,30.12,SSW,203,1.3,4.9,58,0.00,,,0.00,WUHU216HW,2013-06-18 19:05:00,
2013-06-18 14:10:00,84.2,67.4,30.11,ENE,68,1.1,4.7,57,0.00,,,0.00,WUHU216HW,2013-06-18 19:10:00,
2013-06-18 14:15:00,84.4,67.5,30.11,SE,135,1.1,4.3,57,0.00,,,0.00,WUHU216HW,2013-06-18 19:15:00,
2013-06-18 14:20:00,84.6,67.1,30.11,SSE,158,1.8,4.5,56,0.00,,,0.00,WUHU216HW,2013-06-18 19:20:00,
2013-06-18 14:25:00,84.4,67.1,30.12,SSE,158,1.3,4.5,56,0.00,,,0.00,WUHU216HW,2013-06-18 19:25:00,
2013-06-18 14:30:00,84.6,67.1,30.12,ESE,113,1.6,3.6,56,0.00,,,0.00,WUHU216HW,2013-06-18 19:30:00,
2013-06-18 14:35:00,84.8,67.3,30.11,NE,45,1.3,3.8,56,0.00,,,0.00,WUHU216HW,2013-06-18 19:35:00,
2013-06-18 14:40:00,84.8,67.3,30.12,NNW,338,1.1,3.8,56,0.00,,,0.00,WUHU216HW,2013-06-18 19:40:00,
2013-06-18 14:45:00,84.8,67.3,30.12,ESE,113,3.1,3.6,56,0.00,,,0.00,WUHU216HW,2013-06-18 19:45:00,
2013-06-18 14:50:00,84.4,67.1,30.12,SE,135,1.1,3.6,56,0.00,,,0.00,WUHU216HW,2013-06-18 19:50:00,
2013-06-18 14:55:00,84.6,67.1,30.12,NE,45,4.7,5.1,56,0.00,,,0.00,WUHU216HW,2013-06-18 19:55:00,
2013-06-18 15:00:00,84.6,67.1,30.11,SE,135,3.6,5.1,56,0.00,,,0.00,WUHU216HW,2013-06-18 20:00:00,
2013-06-18 15:05:00,84.8,67.3,30.11,ESE,113,2.5,3.6,56,0.00,,,0.00,WUHU216HW,2013-06-18 20:05:00,
2013-06-18 15:10:00,84.8,67.3,30.11,ESE,113,1.3,3.6,56,0.00,,,0.00,WUHU216HW,2013-06-18 20:10:00,
2013-06-18 15:15:00,85.0,67.0,30.11,SE,135,1.3,3.1,55,0.00,,,0.00,WUHU216HW,2013-06-18 20:15:00,
2013-06-18 15:20:00,85.3,67.3,30.11,ENE,68,3.4,3.8,55,0.00,,,0.00,WUHU216HW,2013-06-18 20:20:00,
2013-06-18 15:25:00,85.3,67.3,30.10,East,90,2.2,4.7,55,0.00,,,0.00,WUHU216HW,2013-06-18 20:25:00,
2013-06-18 15:30:00,85.3,66.8,30.10,SE,135,2.0,6.9,54,0.00,,,0.00,WUHU216HW,2013-06-18 20:30:00,
2013-06-18 15:35:00,85.3,67.3,30.09,East,90,3.6,6.9,55,0.00,,,0.00,WUHU216HW,2013-06-18 20:35:00,
2013-06-18 15:40:00,85.3,66.8,30.09,ENE,68,1.1,5.4,54,0.00,,,0.00,WUHU216HW,2013-06-18 20:40:00,
2013-06-18 15:45:00,85.5,67.0,30.09,NNW,338,1.6,4.7,54,0.00,,,0.00,WUHU216HW,2013-06-18 20:45:00,
2013-06-18 15:50:00,85.5,66.4,30.09,NNE,23,1.8,5.1,53,0.00,,,0.00,WUHU216HW,2013-06-18 20:50:00,
2013-06-18 15:55:00,85.3,66.2,30.09,ESE,113,0.7,5.1,53,0.00,,,0.00,WUHU216HW,2013-06-18 20:55:00,
2013-06-18 16:00:00,85.5,66.4,30.09,ENE,68,2.0,3.8,53,0.00,,,0.00,WUHU216HW,2013-06-18 21:00:00,
2013-06-18 16:05:00,85.5,66.4,30.09,NNE,23,1.3,4.0,53,0.00,,,0.00,WUHU216HW,2013-06-18 21:05:00,
2013-06-18 16:10:00,85.5,65.9,30.09,North,0,3.8,6.3,52,0.00,,,0.00,WUHU216HW,2013-06-18 21:10:00,
2013-06-18 16:15:00,85.1,65.6,30.09,ESE,113,4.3,6.3,52,0.00,,,0.00,WUHU216HW,2013-06-18 21:15:00,
2013-06-18 16:20:00,84.8,65.3,30.09,East,90,3.6,4.3,52,0.00,,,0.00,WUHU216HW,2013-06-18 21:20:00,
2013-06-18 16:25:00,84.4,65.4,30.09,ESE,113,3.4,4.9,53,0.00,,,0.00,WUHU216HW,2013-06-18 21:25:00,
2013-06-18 16:30:00,83.9,64.9,30.10,NE,45,3.1,4.9,53,0.00,,,0.00,WUHU216HW,2013-06-18 21:30:00,
2013-06-18 16:35:00,83.5,64.5,30.09,NNE,23,3.4,3.4,53,0.00,,,0.00,WUHU216HW,2013-06-18 21:35:00,
2013-06-18 16:40:00,83.2,64.2,30.09,NNE,23,0.9,3.8,53,0.00,,,0.00,WUHU216HW,2013-06-18 21:40:00,
2013-06-18 16:45:00,82.8,63.8,30.08,North,0,0.4,3.8,53,0.00,,,0.00,WUHU216HW,2013-06-18 21:45:00,
2013-06-18 16:50:00,82.4,63.5,30.08,NNE,23,2.5,2.5,53,0.00,,,0.00,WUHU216HW,2013-06-18 21:50:00,
2013-06-18 16:55:00,82.1,63.2,30.08,ENE,68,0.7,2.5,53,0.00,,,0.00,WUHU216HW,2013-06-18 21:55:00,
2013-06-18 17:00:00,81.9,63.6,30.08,ESE,113,1.1,3.4,54,0.00,,,0.00,WUHU216HW,2013-06-18 22:00:00,
2013-06-18 17:05:00,81.5,63.2,30.08,East,90,1.1,3.4,54,0.00,,,0.00,WUHU216HW,2013-06-18 22:05:00,
2013-06-18 17:10:00,81.4,63.0,30.09,ENE,68,1.1,2.5,54,0.00,,,0.00,WUHU216HW,2013-06-18 22:10:00,
2013-06-18 17:14:00,81.0,63.3,30.09,ESE,113,1.8,2.7,55,0.00,,,0.00,WUHU216HW,2013-06-18 22:14:00,
2013-06-18 17:19:00,80.8,63.1,30.09,ENE,68,2.2,2.9,55,0.00,,,0.00,WUHU216HW,2013-06-18 22:19:00,
2013-06-18 17:24:00,80.5,62.7,30.09,NNE,23,0.4,2.9,55,0.00,,,0.00,WUHU216HW,2013-06-18 22:24:00,
2013-06-18 17:29:00,80.3,62.6,30.09,East,90,0.7,2.7,55,0.00,,,0.00,WUHU216HW,2013-06-18 22:29:00,
2013-06-18 17:34:00,80.1,62.9,30.09,ESE,113,1.6,2.7,56,0.00,,,0.00,WUHU216HW,2013-06-18 22:34:00,
2013-06-18 17:39:00,79.9,62.8,30.09,East,90,0.0,4.3,56,0.00,,,0.00,WUHU216HW,2013-06-18 22:39:00,
2013-06-18 17:44:00,79.7,62.7,30.08,ESE,113,0.0,4.3,56,0.00,,,0.00,WUHU216HW,2013-06-18 22:44:00,
2013-06-18 17:49:00,79.6,63.0,30.08,North,0,0.4,1.8,57,0.00,,,0.00,WUHU216HW,2013-06-18 22:49:00,
2013-06-18 17:54:00,79.4,62.8,30.08,ENE,68,0.0,1.8,57,0.00,,,0.00,WUHU216HW,2013-06-18 22:54:00,
2013-06-18 17:59:00,79.2,63.2,30.09,ENE,68,0.0,1.1,58,0.00,,,0.00,WUHU216HW,2013-06-18 22:59:00,
2013-06-18 18:04:00,79.0,63.0,30.09,ESE,113,0.0,0.7,58,0.00,,,0.00,WUHU216HW,2013-06-18 23:04:00,
2013-06-18 18:09:00,78.8,62.8,30.09,ESE,113,0.0,0.7,58,0.00,,,0.00,WUHU216HW,2013-06-18 23:09:00,
2013-06-18 18:14:00,78.7,63.2,30.10,ESE,113,0.0,0.0,59,0.00,,,0.00,WUHU216HW,2013-06-18 23:14:00,
2013-06-18 18:19:00,78.3,63.4,30.10,ESE,113,0.0,0.0,60,0.00,,,0.00,WUHU216HW,2013-06-18 23:19:00,
2013-06-18 18:24:00,78.1,63.2,30.09,ESE,113,0.0,0.2,60,0.00,,,0.00,WUHU216HW,2013-06-18 23:24:00,
2013-06-18 18:29:00,78.1,63.6,30.09,ESE,113,0.7,0.7,61,0.00,,,0.00,WUHU216HW,2013-06-18 23:29:00,
2013-06-18 18:34:00,77.8,63.7,30.09,ESE,113,0.0,0.7,62,0.00,,,0.00,WUHU216HW,2013-06-18 23:34:00,
2013-06-18 18:39:00,77.6,64.0,30.10,ESE,113,0.0,0.7,63,0.00,,,0.00,WUHU216HW,2013-06-18 23:39:00,
2013-06-18 18:44:00,77.4,64.7,30.10,West,270,0.0,0.7,65,0.00,,,0.00,WUHU216HW,2013-06-18 23:44:00,
2013-06-18 18:49:00,77.0,64.8,30.10,NW,315,1.1,3.4,66,0.00,,,0.00,WUHU216HW,2013-06-18 23:49:00,
2013-06-18 18:54:00,76.7,64.4,30.10,WSW,248,1.8,3.4,66,0.00,,,0.00,WUHU216HW,2013-06-18 23:54:00,
2013-06-18 18:59:00,76.5,64.7,30.10,SW,225,1.1,2.5,67,0.00,,,0.00,WUHU216HW,2013-06-18 23:59:00,
2013-06-18 19:04:00,76.3,65.0,30.10,SW,225,1.1,3.4,68,0.00,,,0.00,WUHU216HW,2013-06-19 00:04:00,
2013-06-18 19:09:00,76.0,65.1,30.10,WSW,248,0.9,3.4,69,0.00,,,0.00,WUHU216HW,2013-06-19 00:09:00,
2013-06-18 19:14:00,75.8,64.9,30.10,WSW,248,0.9,3.4,69,0.00,,,0.00,WUHU216HW,2013-06-19 00:14:00,
2013-06-18 19:19:00,75.6,65.2,30.10,WSW,248,2.5,4.7,70,0.00,,,0.00,WUHU216HW,2013-06-19 00:19:00,
2013-06-18 19:24:00,75.2,65.2,30.10,SW,225,0.2,4.7,71,0.00,,,0.00,WUHU216HW,2013-06-19 00:24:00,
2013-06-18 19:29:00,74.9,64.9,30.10,WSW,248,0.2,2.7,71,0.00,,,0.00,WUHU216HW,2013-06-19 00:29:00,
2013-06-18 19:34:00,74.7,65.1,30.10,WSW,248,3.1,3.4,72,0.00,,,0.00,WUHU216HW,2013-06-19 00:34:00,
2013-06-18 19:39:00,74.7,65.1,30.10,WSW,248,2.0,3.4,72,0.00,,,0.00,WUHU216HW,2013-06-19 00:39:00,
2013-06-18 19:44:00,74.5,64.9,30.10,WSW,248,0.9,3.4,72,0.00,,,0.00,WUHU216HW,2013-06-19 00:44:00,
2013-06-18 19:49:00,74.5,65.4,30.09,West,270,3.1,3.4,73,0.00,,,0.00,WUHU216HW,2013-06-19 00:49:00,
2013-06-18 19:54:00,74.3,65.2,30.10,WSW,248,2.2,3.4,73,0.00,,,0.00,WUHU216HW,2013-06-19 00:54:00,
2013-06-18 19:59:00,74.2,65.0,30.10,West,270,0.7,3.1,73,0.00,,,0.00,WUHU216HW,2013-06-19 00:59:00,
2013-06-18 20:04:00,74.0,65.2,30.09,SW,225,1.1,2.2,74,0.00,,,0.00,WUHU216HW,2013-06-19 01:04:00,
2013-06-18 20:09:00,74.2,65.3,30.10,West,270,2.5,3.8,74,0.00,,,0.00,WUHU216HW,2013-06-19 01:09:00,
2013-06-18 20:14:00,74.2,65.3,30.10,SSE,158,1.1,3.8,74,0.00,,,0.00,WUHU216HW,2013-06-19 01:14:00,
2013-06-18 20:19:00,74.0,65.2,30.10,SSW,203,0.2,2.5,74,0.00,,,0.00,WUHU216HW,2013-06-19 01:19:00,
2013-06-18 20:24:00,74.0,65.2,30.09,WSW,248,0.0,1.6,74,0.00,,,0.00,WUHU216HW,2013-06-19 01:24:00,
2013-06-18 20:29:00,73.8,65.4,30.09,WSW,248,0.0,1.6,75,0.00,,,0.00,WUHU216HW,2013-06-19 01:29:00,
2013-06-18 20:34:00,73.8,65.4,30.09,WSW,248,0.0,0.0,75,0.00,,,0.00,WUHU216HW,2013-06-19 01:34:00,
2013-06-18 20:39:00,73.4,65.1,30.09,WSW,248,0.0,0.0,75,0.00,,,0.00,WUHU216HW,2013-06-19 01:39:00,
2013-06-18 20:44:00,73.3,64.9,30.08,WSW,248,0.0,0.0,75,0.00,,,0.00,WUHU216HW,2013-06-19 01:44:00,
2013-06-18 20:49:00,73.1,64.7,30.08,WSW,248,0.0,0.0,75,0.00,,,0.00,WUHU216HW,2013-06-19 01:49:00,
2013-06-18 20:54:00,72.9,64.9,30.08,WSW,248,0.0,0.2,76,0.00,,,0.00,WUHU216HW,2013-06-19 01:54:00,
2013-06-18 20:59:00,72.7,64.7,30.08,SW,225,0.0,0.2,76,0.00,,,0.00,WUHU216HW,2013-06-19 01:59:00,
2013-06-18 21:04:00,72.5,64.9,30.08,SSE,158,0.0,0.2,77,0.00,,,0.00,WUHU216HW,2013-06-19 02:04:00,
2013-06-18 21:09:00,72.4,64.7,30.08,SSE,158,0.0,0.2,77,0.00,,,0.00,WUHU216HW,2013-06-19 02:09:00,
2013-06-18 21:14:00,72.2,64.2,30.08,SSE,158,0.4,0.9,76,0.00,,,0.00,WUHU216HW,2013-06-19 02:14:00,
2013-06-18 21:19:00,72.0,64.4,30.08,SSE,158,0.0,0.9,77,0.00,,,0.00,WUHU216HW,2013-06-19 02:19:00,
2013-06-18 21:24:00,71.8,64.2,30.08,SSE,158,0.0,0.9,77,0.00,,,0.00,WUHU216HW,2013-06-19 02:24:00,
2013-06-18 21:29:00,71.6,64.0,30.08,SSE,158,0.0,0.7,77,0.00,,,0.00,WUHU216HW,2013-06-19 02:29:00,
2013-06-18 21:34:00,71.6,64.0,30.08,East,90,0.0,0.4,77,0.00,,,0.00,WUHU216HW,2013-06-19 02:34:00,
2013-06-18 21:39:00,71.5,64.3,30.08,East,90,0.0,0.7,78,0.00,,,0.00,WUHU216HW,2013-06-19 02:39:00,
2013-06-18 21:44:00,71.3,64.1,30.08,East,90,0.0,0.7,78,0.00,,,0.00,WUHU216HW,2013-06-19 02:44:00,
2013-06-18 21:49:00,71.3,64.5,30.08,ESE,113,0.0,0.2,79,0.00,,,0.00,WUHU216HW,2013-06-19 02:49:00,
2013-06-18 21:54:00,71.1,64.3,30.09,ESE,113,0.0,0.2,79,0.00,,,0.00,WUHU216HW,2013-06-19 02:54:00,
2013-06-18 21:59:00,70.9,64.1,30.09,ESE,113,0.0,0.0,79,0.00,,,0.00,WUHU216HW,2013-06-19 02:59:00,
2013-06-18 22:04:00,70.9,64.1,30.09,ESE,113,0.2,0.2,79,0.00,,,0.00,WUHU216HW,2013-06-19 03:04:00,
2013-06-18 22:09:00,70.7,63.9,30.09,SW,225,0.0,0.9,79,0.00,,,0.00,WUHU216HW,2013-06-19 03:09:00,
2013-06-18 22:14:00,70.7,64.3,30.09,SE,135,0.0,0.9,80,0.00,,,0.00,WUHU216HW,2013-06-19 03:14:00,
2013-06-18 22:19:00,70.6,64.1,30.09,SE,135,0.0,0.9,80,0.00,,,0.00,WUHU216HW,2013-06-19 03:19:00,
2013-06-18 22:24:00,70.6,64.1,30.09,SE,135,0.0,0.2,80,0.00,,,0.00,WUHU216HW,2013-06-19 03:24:00,
2013-06-18 22:29:00,70.4,63.9,30.09,SE,135,0.0,0.0,80,0.00,,,0.00,WUHU216HW,2013-06-19 03:29:00,
2013-06-18 22:34:00,70.2,63.7,30.09,SE,135,0.0,0.0,80,0.00,,,0.00,WUHU216HW,2013-06-19 03:34:00,
2013-06-18 22:39:00,70.2,63.7,30.09,SE,135,0.0,0.0,80,0.00,,,0.00,WUHU216HW,2013-06-19 03:39:00,
2013-06-18 22:44:00,70.0,63.9,30.09,SE,135,0.0,0.0,81,0.00,,,0.00,WUHU216HW,2013-06-19 03:44:00,
2013-06-18 22:49:00,70.0,63.9,30.09,SE,135,0.0,0.0,81,0.00,,,0.00,WUHU216HW,2013-06-19 03:49:00,
2013-06-18 22:54:00,69.8,63.7,30.09,SE,135,0.0,0.0,81,0.00,,,0.00,WUHU216HW,2013-06-19 03:54:00,
2013-06-18 22:59:00,69.8,63.7,30.09,SE,135,0.0,0.0,81,0.00,,,0.00,WUHU216HW,2013-06-19 03:59:00,
2013-06-18 23:01:00,69.8,63.7,30.09,SE,135,0.0,0.0,81,0.00,,,0.00,WUHU216HW,2013-06-19 04:01:00,
2013-06-18 23:02:00,69.8,63.7,30.09,SE,135,0.0,0.0,81,0.00,,,0.00,WUHU216HW,2013-06-19 04:02:00,
2013-06-18 23:07:00,69.7,63.6,30.10,SE,135,0.0,0.0,81,0.00,,,0.00,WUHU216HW,2013-06-19 04:07:00,
2013-06-18 23:12:00,69.7,63.9,30.10,SE,135,0.0,0.0,82,0.00,,,0.00,WUHU216HW,2013-06-19 04:12:00,
2013-06-18 23:16:00,69.5,63.7,30.09,SE,135,0.0,0.0,82,0.00,,,0.00,WUHU216HW,2013-06-19 04:16:00,
2013-06-18 23:21:00,69.5,63.7,30.09,SE,135,0.0,0.0,82,0.00,,,0.00,WUHU216HW,2013-06-19 04:21:00,
2013-06-18 23:26:00,69.5,63.7,30.09,SE,135,0.0,0.0,82,0.00,,,0.00,WUHU216HW,2013-06-19 04:26:00,
2013-06-18 23:31:00,69.3,63.5,30.09,SE,135,0.0,0.0,82,0.00,,,0.00,WUHU216HW,2013-06-19 04:31:00,
2013-06-18 23:36:00,69.3,63.5,30.09,SE,135,0.0,0.0,82,0.00,,,0.00,WUHU216HW,2013-06-19 04:36:00,
2013-06-18 23:41:00,69.1,63.4,30.09,SE,135,0.0,0.0,82,0.00,,,0.00,WUHU216HW,2013-06-19 04:41:00,
2013-06-18 23:46:00,69.1,63.4,30.09,SE,135,0.0,0.0,82,0.00,,,0.00,WUHU216HW,2013-06-19 04:46:00,
2013-06-18 23:51:00,69.1,63.7,30.10,SE,135,0.0,0.0,83,0.00,,,0.00,WUHU216HW,2013-06-19 04:51:00,
2013-06-18 23:56:00,69.1,63.7,30.10,SE,135,0.0,0.0,83,0.00,,,0.00,WUHU216HW,2013-06-19 04:56:00,